Location: Deurze
(52.9838°N, 6.6090°E)
Time: 18:31:28
(UTC+00:00)

Cosmos 1244 Rocket - Pass Details

Date: 11 March 2026
Orbit: 954 x 996 km, 82.9° (Epoch: 20 April)

Event Time Altitude Azimuth Distance (km) Brightness Sun altitude
Exits shadow 20:43:08 72° 75° (ENE) 1,026 4.4 -28.2°
Drops below altitude 10° 20:49:09 10° 13° (NNE) 2,751 7.1 -28.9°
Sets 20:51:42 0° 12° (NNE) 3,709 7.9 -29.2°
